星链-37178(STARLINK-37178)

导读

STARLINK-37178(NORAD编号68526)是美国太空探索技术公司(SpaceX)部署的星链(Starlink)低轨互联网卫星,归属Starlink V1.0卫星平台。该卫星运行在近地轨道,轨道倾角约70.003°,近地点约570公里、远地点约574公里,轨道周期约96.1分钟,每日绕地球运行约15圈。作为星链全球卫星互联网项目的组成部分,它为全球偏远地区提供高速低延迟互联网接入服务,同时也可支持军事、航空等领域的通信需求,助力缩小全球数字鸿沟。

基本信息
目录编号:
68526
目录名称:
STARLINK-37178
国际标识:
2026-068U
轨道中心:
EARTH
卫星名称:
星链-37178
卫星全名:
星链-37178(STARLINK-37178)
卫星状态:
在轨 (已飞行158 天)
发射日期:
2026-03-30 UTC
国别 :
美国 (US)
星等 :
--
轨道信息
数据来源 国际轨道数据
星历时间: 2026-09-03T16:22:51+0800
21小时前
查看轨道信息
半长轴: 6840.907km
偏心率: 0.0000505
轨道倾角: 53.163°
近地点辐角 46.371°
升交点赤经 14.227°
平近点角 313.734°
近地点: 462.424km
远地点: 463.116km
周期: 93.849分钟
每日圈数: 15.343777
详细信息
固有亮度:
5
最大亮度:
2.5
卫星平台:
Starlink V1.0
覆盖范围:
全球
运营商:
太空探索技术公司
运营商所在国:
美国
制造商(研发单位):
太空探索技术公司
制造商所在国:
美国
使用方式:
暂无
卫星简介
Starlink 计划是 SpaceX 推出的全球卫星互联网项目,通过发射低轨道卫星,为全球尤其是偏远地区提供高速、低延迟的互联网服务。自 2019 年起,Starlink 已部署数千颗卫星,旨在缩小全球数字鸿沟,推动互联网普及。该项目还为军事、航空等行业提供通信支持,带来广泛经济效益。
2D轨道图
3D轨道图
轨道高度分析图
轨道倾角分析图
轨道综合分析图
查看轨道综合分析图
交会数据列表
事件ID 空间交会对象 最接近时刻(TCA) 交会距离 交会风险概率(CRP) 交会风险指数(CRI) 操作
CDM_260904-103206-172606-852621
2026-09-04T
10:32:12+0000
0.255 km
中距离
2.914785E-4 高风险 0.84
CDM_260904-174105-313406-852622
2026-09-04T
17:41:55+0000
0.618 km
远距离
7.571809E-5 中风险 0.73
CDM_260904-142606-172606-852621
2026-09-04T
14:26:41+0000
0.609 km
远距离
3.746863E-5 中风险 0.66
CDM_260905-003405-803806-852621
2026-09-05T
00:34:17+0000
0.816 km
远距离
2.397479E-5 中风险 0.63
CDM_260905-060205-803806-852621
2026-09-05T
06:02:34+0000
0.920 km
远距离
1.599977E-5 中风险 0.59
CDM_260905-065905-313406-852621
2026-09-05T
06:59:09+0000
1.064 km
极远距离
1.307887E-5 中风险 0.57
CDM_260904-112604-578606-852621
2026-09-04T
11:26:34+0000
1.297 km
极远距离
6.530934E-6 低风险 0.51
CDM_260904-191505-313406-852622
2026-09-04T
19:15:42+0000
1.956 km
极远距离
1.919724E-6 低风险 0.41
CDM_260904-110205-112906-852621
2026-09-04T
11:02:16+0000
2.851 km
极远距离
1.264409E-6 低风险 0.37
CDM_260904-160805-313406-852621
2026-09-04T
16:08:07+0000
2.584 km
极远距离
1.086345E-6 低风险 0.36